User: anonymous   Login
Location: Unspecified
(0.0000°N, 0.0000°E)
Time: 21:39:03
(UTC+00:00)
Language:

Meteor 3-4 Rocket - Orbit

View from above orbital plane
View from above orbital plane
View from above satellite
View from above satellite

Ground track
Ground track

The orbit data is extracted from the following two-line orbital elements,

1 21233U 91030B   24056.78980437 -.00000186  00000-0 -52089-3 0  9991
2 21233  82.5426  68.4620 0017844 125.7408  47.2675 13.16365094577915
Epoch (UTC): 25 February 2024 18:57:19
Eccentricity: 0.0017844
inclination: 82.5426°
perigee height: 1185 km
apogee height: 1212 km
right ascension of ascending node: 68.4620°
argument of perigee: 125.7408°
revolutions per day: 13.16365094
mean anomaly at epoch: 47.2675°
orbit number at epoch: 57791

The dashed part of the orbit path shows where the satellite is in the earth's shadow,  

DLR